Tracking 29059 objects as of 18-Jun-2024
HD Live streaming from Space Station
objects crossing your sky now

USA 7

Track USA 7 now!
USA 7 is classified as:


NORAD ID: 15453
Int'l Code: 1984-129A
Perigee: 36,181.8 km
Apogee: 36,208.1 km
Inclination: 12.7 °
Period: 1,456.6 minutes
Semi major axis: 42565 km
RCS: Unknown
Launch date: December 22, 1984
Source: United States (US)
Launch site: AIR FORCE EASTERN TEST RANGE (AFETR)
Your satellite tracking list
Your tracking list is empty




NASA's NSSDC Master Catalog

Two Line Element Set (TLE):
1 15453U 84129A   24169.79806284 -.00000191  00000-0  00000-0 0  9990
2 15453  12.6826 326.4229 0003094 179.1888 169.6887  0.98857480 18835
Source of the keplerian elements: McCants